Weather History for Joplin, MO

Change the Weather History Date:

Saturday, May 11, 2013

  Actual Average Record
Temperature  
Mean Temperature 58 °F 66 °F  
Max Temperature 71 °F 77 °F 90 °F (1963)
Min Temperature 44 °F 55 °F 36 °F (1981)
Degree Days  
Heating Degree Days 7 3  
Month to date heating degree days 120 37  
Since 1 July heating degree days 4224 4040  
Cooling Degree Days 0 3  
Month to date cooling degree days 8 29  
Year to date cooling degree days 38 83  
Growing Degree Days 8 (Base 50)    
Moisture  
Dew Point 45 °F    
Average Humidity 67    
Maximum Humidity 100    
Minimum Humidity 34    
Precipitation  
Precipitation 0.00 in 0.19 in 1.72 in (1966)
Month to date precipitation 1.94 2.11  
Year to date precipitation 16.44 14.35  
Sea Level Pressure  
Sea Level Pressure 30.12 in    
Wind  
Wind Speed 8 mph (WNW)    
Max Wind Speed 21 mph    
Max Gust Speed 26 mph    
Visibility 7 miles    
Events Fog    
T = Trace of Precipitation, MM = Missing Value Source: NWS Daily Summary

Daily Weather History Graph

Daily Weather History Graph

Search for Another Location

Airport:

Trip Planner

Search our weather history database for the weather conditions in past years. The results will help you decide how hot, cold, wet, or windy it might be!

Date:

Astronomy

May. 11, 2013 Rise Set
Actual Time 6:12 AM CDT 8:16 PM CDT
Civil Twilight 5:44 AM CDT 8:45 PM CDT
Nautical Twilight 5:09 AM CDT 9:20 PM CDT
Astronomical Twilight 4:31 AM CDT 9:58 PM CDT
Moon 7:21 AM CDT (5/11) 9:56 PM CDT (5/11)
Length of Visible Light 15h 01m
Length of Day
14h 03m
Waxing Crescent, 3% of the Moon is Illuminated
May 11
Waxing Crescent
May 17
First Quarter
May 24
Full
May 31
Last Quarter
Jun 8
New

Hourly Weather History & Observations

Time (CDT) Temp. Windchill Dew Point Humidity Pressure Visibility Wind Dir Wind Speed Gust Speed Precip Events Conditions
12:53 AM 48.9 °F - 46.9 °F 93% 30.08 in 2.5 mi Calm Calm - N/A   Clear
1:00 AM 50.0 °F - 48.2 °F 94% 30.09 in 3.0 mi Calm Calm - N/A   Clear
1:08 AM 46.4 °F - 46.4 °F 100% 30.09 in 1.8 mi Calm Calm - N/A   Clear
1:17 AM 46.4 °F - 46.4 °F 100% 30.09 in 3.0 mi Calm Calm - N/A   Clear
1:53 AM 48.0 °F - 46.9 °F 96% 30.08 in 1.8 mi Calm Calm - N/A   Clear
2:04 AM 46.4 °F - 46.4 °F 100% 30.09 in 0.5 mi Calm Calm - N/A Fog Fog
2:13 AM 46.4 °F 45.2 °F 46.4 °F 100% 30.09 in 1.0 mi South 3.5 mph - N/A   Clear
2:16 AM 46.4 °F 45.2 °F 46.4 °F 100% 30.09 in 4.0 mi South 3.5 mph - N/A   Clear
2:53 AM 48.0 °F - 46.0 °F 93% 30.09 in 5.0 mi Calm Calm - N/A   Clear
3:09 AM 46.4 °F 44.3 °F 44.6 °F 93% 30.10 in 2.5 mi South 4.6 mph - N/A   Clear
3:26 AM 46.4 °F 45.2 °F 46.4 °F 100% 30.09 in 4.0 mi South 3.5 mph - N/A   Clear
3:53 AM 46.9 °F - 46.9 °F 100% 30.08 in 2.5 mi South 3.5 mph - N/A   Clear
4:07 AM 46.4 °F 45.2 °F 46.4 °F 100% 30.08 in 1.2 mi South 3.5 mph - N/A   Clear
4:15 AM 46.4 °F 45.2 °F 46.4 °F 100% 30.09 in 4.0 mi South 3.5 mph - N/A   Clear
4:53 AM 46.0 °F 44.8 °F 45.0 °F 96% 30.08 in 4.0 mi SSW 3.5 mph - N/A   Clear
5:53 AM 46.0 °F - 45.0 °F 96% 30.08 in 7.0 mi Calm Calm - 0.01 in Fog Patches of Fog
6:53 AM 46.0 °F 44.8 °F 45.0 °F 96% 30.10 in 10.0 mi SW 3.5 mph - N/A   Clear
7:53 AM 54.0 °F - 52.0 °F 93% 30.11 in 10.0 mi West 5.8 mph - N/A   Clear
8:53 AM 59.0 °F - 52.0 °F 78% 30.12 in 10.0 mi NW 5.8 mph - N/A   Clear
9:53 AM 64.0 °F - 53.1 °F 67% 30.12 in 10.0 mi NW 8.1 mph - N/A   Clear
10:53 AM 68.0 °F - 53.1 °F 59% 30.12 in 10.0 mi WNW 9.2 mph - N/A   Clear
11:53 AM 70.0 °F - 53.1 °F 55% 30.12 in 10.0 mi NW 11.5 mph 21.9 mph N/A   Clear
12:53 PM 71.1 °F - 55.0 °F 57% 30.13 in 10.0 mi NW 16.1 mph 19.6 mph N/A   Mostly Cloudy
1:53 PM 69.1 °F - 48.9 °F 49% 30.15 in 10.0 mi North 17.3 mph 25.3 mph N/A   Partly Cloudy
2:53 PM 68.0 °F - 44.1 °F 42% 30.16 in 10.0 mi North 11.5 mph 24.2 mph N/A   Clear
3:53 PM 68.0 °F - 39.0 °F 35% 30.15 in 10.0 mi North 13.8 mph 23.0 mph N/A   Clear
4:53 PM 68.0 °F - 39.0 °F 35% 30.16 in 10.0 mi North 15.0 mph 20.7 mph N/A   Clear
5:53 PM 66.0 °F - 37.0 °F 34% 30.17 in 10.0 mi NNW 13.8 mph - N/A   Clear
6:53 PM 64.0 °F - 36.0 °F 35% 30.17 in 10.0 mi NNW 16.1 mph - N/A   Clear
7:53 PM 57.9 °F - 35.1 °F 42% 30.18 in 10.0 mi North 9.2 mph - N/A   Clear
8:53 PM 55.4 °F - 33.8 °F 44% 30.20 in 10.0 mi NNW 4.6 mph - N/A   Clear
9:53 PM 54.0 °F - 34.0 °F 47% 30.21 in 10.0 mi Calm Calm - N/A   Clear
10:53 PM 52.0 °F - 37.0 °F 57% 30.21 in 10.0 mi Calm Calm - N/A   Clear
11:53 PM 48.0 °F - 35.1 °F 61% 30.23 in 10.0 mi North 6.9 mph - N/A   Clear